User: anonymous   Login
Location: Unspecified
(0.0000°N, 0.0000°E)
Time: 21:23:04
(UTC+00:00)
Language:

USA 200 - Orbit

View from above orbital plane
View from above orbital plane
View from above satellite
View from above satellite

Ground track
Ground track

The orbit data is extracted from the following two-line orbital elements,

1 32706U 08010A   15199.48245580 -.00000325  00000-0  00000-0 0    02
2 32706  63.1311  79.7762 7048780 268.1983  17.1906  2.00609591    00
Epoch (UTC): 18 July 2015 11:34:44
Eccentricity: 0.7048780
inclination: 63.1311°
perigee height: 1459 km
apogee height: 38897 km
right ascension of ascending node: 79.7762°
argument of perigee: 268.1983°
revolutions per day: 2.00609591
mean anomaly at epoch: 17.1906°
orbit number at epoch: 0

The dashed part of the orbit path shows where the satellite is in the earth's shadow,  

DLR